Change the Weather History Date:

Tuesday, February 28, 2012

  Actual Average Record
Temperature  
Mean Temperature 52 °F -  
Max Temperature 68 °F 59 °F 78 °F (1981)
Min Temperature 37 °F 37 °F 16 °F (2002)
Degree Days  
Heating Degree Days 12    
Growing Degree Days 2 (Base 50)    
Moisture  
Dew Point 43 °F    
Average Humidity 84    
Maximum Humidity 100    
Minimum Humidity 37    
Precipitation  
Precipitation 0.07 in - - ()
Sea Level Pressure  
Sea Level Pressure 30.34 in    
Wind  
Wind Speed 1 mph (ESE)    
Max Wind Speed 10 mph    
Max Gust Speed 16 mph    
Visibility 5 miles    
Events Fog , Rain    
Averages and records for this station are not official NWS values.
T = Trace of Precipitation, MM = Missing Value Source: NWS Daily Summary

Daily Weather History Graph

Daily Weather History Graph

Search for Another Location

Airport or City:

Trip Planner

Search our weather history database for the weather conditions in past years. The results will help you decide how hot, cold, wet, or windy it might be!

Date:

Astronomy

Feb. 28, 2012 Rise Set
Actual Time 7:01 AM EST 6:25 PM EST
Civil Twilight 6:36 AM EST 6:50 PM EST
Nautical Twilight 6:07 AM EST 7:20 PM EST
Astronomical Twilight 5:38 AM EST 7:49 PM EST
Moon 10:26 AM EST (2/28) No Moon Set
Length of Visible Light 12h 14m
Length of Day
11h 23m
Waxing Crescent, 37% of the Moon is Illuminated
Feb 28
Waxing Crescent
Feb 29
First Quarter
Mar 8
Full
Mar 14
Last Quarter
Mar 22
New

Hourly Weather History & Observations

Time (EST) Temp. Windchill Dew Point Humidity Pressure Visibility Wind Dir Wind Speed Gust Speed Precip Events Conditions
12:52 AM 46.4 °F - 44.6 °F 93% 30.36 in 1.5 mi Calm Calm - N/A   Clear
12:56 AM 46.0 °F - 45.0 °F 96% 30.36 in 1.2 mi Calm Calm - N/A   Clear
1:06 AM 46.4 °F - 44.6 °F 93% 30.36 in 3.0 mi Calm Calm - N/A   Clear
1:41 AM 44.6 °F - 44.6 °F 100% 30.35 in 1.8 mi Calm Calm - N/A   Clear
1:54 AM 44.6 °F - 42.8 °F 93% 30.35 in 3.0 mi Calm Calm - N/A   Clear
1:56 AM 45.0 °F - 43.0 °F 93% 30.35 in 4.0 mi Calm Calm - N/A   Clear
2:26 AM 44.6 °F - 42.8 °F 93% 30.35 in 2.5 mi Calm Calm - N/A   Partly Cloudy
2:29 AM 42.8 °F - 42.8 °F 100% 30.35 in 1.0 mi Calm Calm - N/A   Mist
2:39 AM 42.8 °F - 41.0 °F 93% 30.35 in 2.5 mi Calm Calm - N/A   Partly Cloudy
2:46 AM 42.8 °F - 41.0 °F 93% 30.35 in 5.0 mi Calm Calm - N/A   Partly Cloudy
2:56 AM 44.1 °F - 42.1 °F 93% 30.35 in 8.0 mi Calm Calm - N/A   Partly Cloudy
3:56 AM 44.1 °F - 42.1 °F 93% 30.33 in 6.0 mi Calm Calm - N/A   Clear
4:30 AM 42.8 °F - 39.2 °F 87% 30.34 in 4.0 mi Calm Calm - N/A   Scattered Clouds
4:33 AM 42.8 °F - 39.2 °F 87% 30.34 in 1.8 mi Calm Calm - N/A   Mostly Cloudy
4:49 AM 42.8 °F 41.1 °F 39.2 °F 87% 30.34 in 0.8 mi ENE 3.5 mph - N/A   Mist
4:56 AM 41.0 °F - 39.9 °F 96% 30.34 in 0.8 mi Calm Calm - N/A   Mist
5:02 AM 39.2 °F - 39.2 °F 100% 30.35 in 1.0 mi Calm Calm - N/A   Mist
5:08 AM 39.2 °F - 39.2 °F 100% 30.35 in 0.5 mi Calm Calm - N/A Fog Fog
5:20 AM 39.2 °F - 39.2 °F 100% 30.35 in 0.2 mi Calm Calm - N/A Fog Fog
5:56 AM 41.0 °F - 39.9 °F 96% 30.35 in 0.5 mi Calm Calm - N/A Fog Fog
6:06 AM 39.2 °F - 39.2 °F 100% 30.35 in 1.0 mi Calm Calm - N/A   Mist
6:11 AM 39.2 °F - 39.2 °F 100% 30.35 in 3.0 mi Calm Calm - N/A   Mostly Cloudy
6:27 AM 39.2 °F - 37.4 °F 93% 30.36 in 2.0 mi Calm Calm - N/A   Mostly Cloudy
6:36 AM 37.4 °F - 37.4 °F 100% 30.36 in 0.8 mi Calm Calm - N/A   Mist
6:41 AM 37.4 °F - 37.4 °F 100% 30.36 in 0.5 mi Calm Calm - N/A Fog Fog
6:48 AM 37.4 °F - 37.4 °F 100% 30.37 in 0.2 mi Calm Calm - N/A Fog Fog
6:56 AM 37.9 °F - 37.0 °F 97% 30.36 in 0.2 mi Calm Calm - N/A Fog Fog
7:12 AM 37.4 °F 34.9 °F 37.4 °F 100% 30.36 in 0.8 mi NE 3.5 mph - N/A   Mostly Cloudy
7:15 AM 37.4 °F 34.9 °F 37.4 °F 100% 30.37 in 3.0 mi NE 3.5 mph - N/A   Mostly Cloudy
7:56 AM 42.1 °F - 41.0 °F 96% 30.38 in 6.0 mi Calm Calm - N/A   Clear
8:56 AM 51.1 °F - 46.9 °F 86% 30.39 in 9.0 mi NE 3.5 mph - N/A   Clear
9:56 AM 57.0 °F - 44.1 °F 62% 30.39 in 10.0 mi East 10.4 mph - N/A   Scattered Clouds
10:56 AM 62.1 °F - 43.0 °F 50% 30.39 in 10.0 mi East 10.4 mph - N/A   Clear
11:56 AM 64.9 °F - 39.0 °F 39% 30.38 in 10.0 mi ESE 10.4 mph - N/A   Overcast
12:56 PM 66.0 °F - 39.0 °F 37% 30.35 in 10.0 mi East 10.4 mph - N/A   Mostly Cloudy
1:56 PM 66.9 °F - 41.0 °F 39% 30.31 in 10.0 mi SE 9.2 mph 16.1 mph N/A   Partly Cloudy
2:56 PM 68.0 °F - 43.0 °F 40% 30.30 in 10.0 mi South 9.2 mph - N/A   Clear
3:56 PM 66.0 °F - 44.1 °F 45% 30.29 in 10.0 mi SSE 6.9 mph - N/A   Mostly Cloudy
4:56 PM 64.9 °F - 45.0 °F 48% 30.30 in 10.0 mi South 6.9 mph - N/A   Mostly Cloudy
5:56 PM 63.0 °F - 46.0 °F 54% 30.30 in 10.0 mi South 4.6 mph - N/A   Overcast
6:56 PM 60.1 °F - 48.0 °F 64% 30.29 in 10.0 mi SSE 5.8 mph - 0.00 in Rain Light Rain
7:56 PM 57.9 °F - 51.1 °F 78% 30.29 in 10.0 mi Calm Calm - 0.00 in   Overcast
8:56 PM 57.9 °F - 51.1 °F 78% 30.30 in 10.0 mi Calm Calm - N/A   Overcast
9:56 PM 57.9 °F - 51.1 °F 78% 30.29 in 10.0 mi Calm Calm - N/A   Overcast
10:32 PM 57.2 °F - 51.8 °F 82% 30.29 in 10.0 mi Calm Calm - N/A   Overcast
10:56 PM 57.0 °F - 52.0 °F 83% 30.28 in 10.0 mi Calm Calm - 0.01 in   Overcast
11:56 PM 55.0 °F - 53.1 °F 93% 30.27 in 4.0 mi NW 4.6 mph - 0.06 in Rain Light Rain